RH
2 2 2 2 2 2 2 2 2 2 2 2 2 2 2 2 2 2 2 2 2 2 2 2 2 2 2 2 2 2 2 2 2 2 2 2 2 2 2 3 2 2 3 3 4 4 4 5 6 7 8 8 9 9 10 11 11 11 12 12 12 14 16 18 22 25 28 30 32 38 47 54 54 50 48 48 47 45 41 37 38 43 51 55 58
2 2 2 2 2 2 2 2 2 2 2 2 2 2 2 2 2 2 2 2 2 2 2 2 2 2 2 2 2 2 2 2 2 2 2 2 2 2 2 2 2 2 3 3 3 3 3 4 5 6 7 8 8 9 9 9 10 10 10 10 11 12 13 15 17 22 28 30 31 31 33 43 54 53 49 50 51 51 48 41 33 29 32 38 43
2 2 2 2 2 2 2 2 2 2 2 2 2 2 2 2 2 2 2 2 2 2 2 2 2 2 2 2 2 2 2 2 2 2 2 2 2 2 2 2 2 2 2 2 2 3 3 3 4 4 6 7 7 8 8 8 8 9 10 10 10 10 11 12 14 17 24 29 32 32 29 32 42 48 48 46 46 48 50 48 40 31 25 24 27
1 2 2 2 2 2 2 2 2 2 2 2 2 2 2 2 2 2 2 2 2 2 2 2 2 2 2 2 2 2 2 2 2 2 2 2 2 2 2 2 2 2 2 2 2 2 2 3 3 3 4 5 6 7 7 7 7 8 8 9 9 9 10 11 12 13 18 23 29 33 33 30 32 36 39 39 38 39 43 45 44 40 32 23 20
2 2 2 2 2 2 2 2 2 2 2 2 2 2 2 2 2 2 2 2 2 2 2 2 2 2 2 2 2 2 2 2 2 2 2 2 2 2 2 2 2 2 2 2 2 2 2 2 2 3 3 3 4 6 6 7 7 7 8 8 8 9 9 9 10 11 13 17 23 28 33 33 31 31 32 33 33 32 33 37 40 44 43 35 25
2 2 2 2 2 2 2 2 2 2 2 2 2 2 2 2 2 2 2 2 2 2 2 2 2 2 2 2 2 2 2 2 2 2 2 2 2 2 2 2 2 2 2 2 3 2 2 2 2 2 3 3 3 4 5 6 6 7 7 8 8 8 8 9 9 10 11 13 17 22 28 32 33 32 30 31 31 30 29 29 31 36 44 45 38
2 2 1 2 2 2 2 2 2 2 2 2 2 2 2 2 2 2 2 2 2 2 2 2 2 2 2 2 2 2 2 2 2 2 2 2 2 2 2 2 2 2 2 2 3 3 3 3 3 2 2 3 3 3 4 4 5 6 6 7 7 7 8 8 8 9 10 11 13 17 22 27 31 32 32 31 30 30 28 26 26 28 32 39 41
2 2 1 2 1 1 2 2 2 2 2 2 2 2 3 2 2 2 2 2 2 2 2 2 2 2 2 2 2 2 2 2 2 2 2 2 2 2 2 2 2 2 2 2 2 2 3 2 3 3 3 3 3 3 3 3 4 5 5 6 7 7 7 7 8 9 9 10 10 13 17 22 26 29 31 31 31 30 30 29 28 27 26 28 31
2 2 2 2 2 2 2 2 2 2 2 2 2 2 2 2 2 2 2 2 2 2 2 2 2 2 2 2 2 2 2 2 2 2 2 2 2 2 2 2 2 2 2 2 2 2 2 2 2 2 3 3 3 3 3 3 3 3 4 5 5 6 6 6 7 8 9 9 10 11 14 17 21 24 27 30 32 32 32 31 30 28 27 26 26
2 2 2 2 2 2 2 2 2 2 2 2 2 2 2 2 2 2 2 2 3 2 2 2 2 2 2 2 2 2 2 2 2 2 2 2 2 2 2 2 2 2 2 2 2 2 2 2 2 3 2 3 3 3 3 3 3 3 3 3 4 4 5 5 6 7 8 9 9 10 12 14 17 21 24 27 31 33 33 33 31 30 28 27 25
2 2 2 2 2 2 2 2 2 2 2 2 2 2 2 2 2 2 2 3 2 2 3 3 3 3 3 3 2 2 2 2 2 2 2 2 2 2 3 2 2 2 3 3 2 2 2 2 2 2 2 3 2 3 3 3 3 3 3 3 3 3 4 4 5 5 6 7 8 9 11 12 14 17 21 24 27 30 33 33 32 31 29 28 27
2 2 2 2 2 2 2 2 2 2 2 3 2 3 2 2 2 2 2 3 3 3 2 2 3 3 3 3 3 2 3 2 3 3 2 2 2 2 2 2 2 3 3 3 3 3 3 2 2 2 2 2 2 2 3 3 3 3 3 3 3 3 3 3 4 5 5 5 6 7 9 11 13 16 18 20 22 25 28 31 32 31 30 30 30
2 2 2 2 2 2 2 2 3 2 2 3 3 3 3 2 3 2 2 3 2 3 3 2 3 3 3 3 3 3 3 2 2 3 2 3 2 2 2 2 2 2 2 3 3 3 3 2 2 2 2 2 2 2 2 2 3 3 3 3 3 2 3 3 3 4 4 4 5 6 7 9 12 14 16 17 19 21 23 25 27 29 30 31 32
2 2 3 2 2 3 2 2 2 2 3 3 2 3 3 3 3 2 2 3 2 3 3 2 3 3 3 3 3 3 3 3 3 3 3 3 3 3 3 2 3 3 3 3 2 2 3 3 2 3 2 2 2 2 2 2 2 3 2 3 3 3 2 3 3 3 3 4 4 5 5 7 9 12 14 15 16 17 19 22 23 25 27 29 29
3 3 3 3 3 2 2 3 3 3 3 3 3 3 3 3 3 3 3 3 3 3 3 3 3 3 3 3 3 3 3 3 3 3 3 3 3 3 3 3 3 3 3 3 3 2 2 2 3 3 2 2 2 2 2 2 2 2 2 2 2 3 3 2 3 3 3 3 4 4 5 5 6 8 11 12 13 14 16 18 20 20 21 22 24
3 3 3 3 3 3 3 2 2 3 3 3 3 3 3 3 3 3 3 3 3 3 3 3 3 3 3 3 3 3 3 3 3 3 3 3 3 3 3 3 3 3 3 3 3 3 3 3 3 2 2 2 2 2 2 2 2 2 2 3 2 2 3 3 2 3 3 3 3 3 4 4 5 6 7 9 11 12 13 14 16 17 17 18 20
3 3 3 3 3 3 3 3 3 3 3 3 3 3 3 3 3 3 3 3 3 3 3 3 3 3 3 3 3 3 3 3 3 3 3 4 4 4 4 4 4 3 4 4 3 3 3 3 3 3 2 2 2 2 2 2 2 2 2 3 3 2 3 3 2 3 3 3 3 3 3 4 4 5 6 7 8 10 11 13 15 17 18 18 19
3 3 3 3 3 3 3 3 3 3 2 3 3 3 3 3 3 3 3 3 3 3 3 3 3 3 3 3 3 3 3 3 3 3 4 4 4 4 4 4 4 3 4 4 4 4 4 4 3 3 3 3 2 2 2 2 2 2 2 2 2 2 3 3 3 3 3 3 3 3 3 3 3 4 4 5 6 7 9 11 13 15 16 17 17
3 3 3 3 3 3 3 3 2 3 3 2 2 2 3 3 3 3 3 3 3 3 3 3 3 3 3 3 3 3 3 3 3 3 4 4 4 4 4 4 4 3 4 4 4 4 4 4 4 3 3 3 3 3 3 3 2 2 2 2 2 2 3 2 3 3 2 3 3 3 3 3 3 3 3 4 5 5 6 8 10 11 13 14 15
3 3 3 3 3 3 3 3 3 3 3 3 3 2 3 3 3 3 3 3 3 3 3 3 3 3 3 3 3 3 3 3 4 4 4 4 4 4 4 4 4 3 3 4 4 4 4 4 4 4 4 3 3 3 3 3 3 2 2 2 2 2 2 2 2 3 3 3 3 3 3 3 3 3 3 3 4 4 5 6 6 8 10 11 12
3 3 3 3 3 3 3 3 3 3 3 3 3 3 3 3 3 3 3 3 3 3 3 3 3 3 3 3 3 3 3 3 4 4 4 4 4 4 4 4 4 4 4 4 3 4 4 4 4 4 4 4 4 3 3 3 3 3 3 3 3 2 2 2 2 3 3 3 3 3 3 3 3 3 3 3 4 4 4 5 5 6 7 8 10
3 4 4 4 3 3 4 3 3 3 3 3 3 3 3 3 3 3 3 3 3 3 3 3 3 3 3 3 3 3 3 3 3 3 4 4 4 4 4 4 4 4 4 3 3 3 3 4 4 4 4 4 4 4 4 3 3 3 3 3 3 2 2 2 2 3 3 3 3 3 3 3 3 3 3 3 4 4 4 4 5 5 6 7 8
4 4 4 4 4 4 4 4 4 4 4 4 4 4 4 4 4 4 4 4 4 4 4 4 4 4 4 3 3 3 3 3 3 3 4 4 4 4 4 4 4 4 4 4 3 3 3 3 4 4 4 4 4 4 4 4 4 3 3 3 3 2 3 2 2 2 2 2 2 3 3 3 3 3 3 3 3 4 4 4 4 5 5 6 6
4 4 4 4 4 4 4 4 4 4 4 4 4 4 4 4 4 4 4 4 4 4 4 4 4 4 4 4 4 4 3 3 3 3 3 4 4 4 4 4 4 4 4 4 4 4 4 4 4 4 4 4 4 4 4 4 5 4 4 3 3 3 3 3 3 3 2 2 2 2 3 3 3 3 3 3 3 4 4 4 4 4 5 5 5
4 4 4 4 4 4 4 4 3 3 3 3 3 4 4 3 3 3 3 3 3 3 3 4 4 4 4 4 4 4 4 4 4 4 4 4 4 4 4 4 4 4 4 4 4 4 4 4 4 4 4 4 4 4 4 5 5 5 5 4 4 3 3 3 3 3 3 3 3 3 3 3 3 3 3 3 3 3 4 3 4 4 4 4 5
4 4 4 4 4 4 4 4 4 4 4 4 4 4 4 4 4 4 3 4 4 3 4 4 4 4 4 4 4 4 3 4 4 4 4 4 4 4 4 4 4 4 4 4 4 4 4 4 4 4 4 4 4 4 5 5 5 5 5 4 4 4 4 4 3 3 3 3 3 3 3 3 4 3 3 3 4 3 4 4 4 4 4 4 5
4 4 4 4 4 4 4 4 4 4 4 4 4 4 4 4 4 4 4 4 4 4 4 4 4 4 4 4 4 4 4 4 4 4 4 4 4 4 4 4 4 4 4 4 4 4 4 3 3 4 4 4 4 4 4 5 5 5 4 4 4 4 4 4 4 4 4 4 3 3 3 3 3 3 3 4 4 4 4 4 4 4 4 4 5
4 4 4 4 4 4 4 4 4 4 4 4 4 4 4 4 4 4 4 4 4 4 4 4 4 4 4 4 4 4 4 4 4 4 4 4 4 4 4 4 3 3 3 4 3 4 4 4 4 4 4 4 4 4 5 5 5 5 4 4 4 4 4 4 5 5 5 5 4 4 4 4 3 3 4 4 4 4 4 4 4 4 5 5 5
5 4 4 4 4 4 4 4 4 4 4 4 4 4 4 4 4 4 4 4 4 4 4 4 4 4 4 4 4 4 4 4 4 4 4 4 4 4 4 4 3 3 3 3 3 3 3 3 3 3 4 4 4 4 5 5 5 5 5 5 4 4 4 4 4 5 5 5 5 5 5 4 4 4 4 4 4 4 5 5 5 5 5 5 5
5 5 4 4 4 4 4 4 4 4 4 4 4 4 4 4 4 4 4 4 4 4 4 4 4 4 4 4 4 4 4 4 4 4 4 4 4 4 4 4 4 4 4 3 3 3 3 3 3 3 3 3 3 4 4 4 5 5 5 5 5 5 5 5 5 5 5 5 5 5 5 5 5 5 5 5 5 5 5 5 5 5 5 5 5
5 5 5 5 5 4 4 4 4 4 4 5 5 5 5 5 5 4 5 5 4 4 4 4 4 4 4 4 4 4 4 4 4 4 4 4 4 4 4 4 4 4 4 4 4 3 3 3 3 3 3 3 3 3 4 4 4 5 5 5 5 5 5 5 5 5 5 5 5 5 5 5 6 5 5 5 5 6 5 5 5 5 5 5 5
5 5 5 5 5 5 5 5 5 5 5 5 5 5 5 5 5 5 5 5 5 5 5 4 4 4 4 4 4 4 4 4 4 4 4 4 4 4 4 4 4 4 4 4 4 4 4 4 4 4 4 4 3 3 4 4 4 4 5 5 5 5 5 5 5 5 5 5 5 5 5 5 5 5 5 6 6 6 6 6 6 6 6 6 6
6 6 6 6 5 5 5 5 5 5 5 5 5 5 5 5 5 5 5 5 5 5 5 5 5 5 5 5 4 4 4 4 4 4 4 4 4 4 4 4 4 4 4 4 4 4 4 4 4 4 4 4 4 4 4 4 4 4 5 5 5 5 5 6 6 6 5 5 5 5 5 5 5 5 5 6 6 6 6 7 7 7 7 7 7
6 6 6 6 6 6 6 6 5 5 5 5 5 5 5 5 5 6 6 6 6 6 5 6 6 5 5 5 5 5 5 4 4 4 4 4 4 4 4 4 4 4 4 4 4 4 4 4 4 4 4 5 5 4 4 5 5 5 5 5 5 5 5 6 6 6 6 6 6 5 5 5 5 5 6 6 6 6 7 7 7 7 7 8 8
6 6 6 6 6 6 6 6 6 6 6 6 6 6 6 6 6 6 6 6 6 6 6 6 6 6 6 6 6 6 5 5 5 5 4 4 4 4 4 4 4 4 4 4 4 4 4 4 5 5 5 5 5 5 5 5 5 5 5 6 6 6 6 6 6 6 6 6 6 6 6 6 6 6 6 6 6 7 7 7 8 8 8 8 9
6 7 7 7 7 7 7 7 7 7 7 7 7 7 6 6 7 7 7 7 7 7 7 7 7 7 7 7 7 6 6 6 6 5 5 5 5 5 5 4 4 4 4 4 4 4 4 4 5 5 5 5 5 5 6 6 6 6 6 6 6 6 6 6 6 6 6 6 6 6 6 7 6 6 6 6 6 6 7 7 7 8 8 8 9
7 7 8 8 8 8 8 8 8 9 9 8 8 8 8 7 7 7 7 8 8 8 8 8 8 8 8 8 7 7 7 7 6 6 6 5 5 5 5 5 5 5 4 4 4 4 4 4 5 5 5 5 5 6 6 6 6 6 6 6 6 6 6 6 6 6 7 6 7 7 7 7 7 7 7 7 7 7 7 7 8 8 8 8 9
8 8 8 9 9 9 9 10 11 11 11 11 11 10 10 9 9 8 8 8 8 8 8 8 9 9 9 9 9 8 8 8 7 7 7 6 6 6 6 5 5 5 5 5 5 5 4 5 5 5 5 5 5 5 5 6 6 6 6 6 6 6 7 7 7 7 7 7 7 7 7 7 8 8 8 8 8 8 8 8 8 8 9 9 9
10 10 9 9 9 10 11 12 13 14 15 15 16 15 14 14 13 13 12 11 10 9 9 9 9 9 9 9 9 10 9 9 9 9 8 8 8 7 7 7 6 6 6 6 5 5 5 5 5 5 5 5 5 5 5 5 6 6 6 6 6 6 6 7 7 7 7 7 7 8 8 8 8 8 8 9 9 9 9 9 9 9 9 10 10
10 11 11 10 10 10 11 13 14 16 17 19 20 21 21 20 20 20 20 18 16 14 12 12 11 11 10 10 10 10 10 10 10 10 10 10 10 9 9 8 8 7 7 7 6 6 6 5 5 5 5 5 5 5 5 5 5 5 5 5 6 6 6 6 6 6 7 7 7 7 8 8 8 9 9 9 9 9 9 10 10 10 10 10 10
9 11 11 11 11 11 11 13 15 17 19 22 23 25 25 26 27 27 27 26 25 23 21 19 18 17 16 15 13 12 12 11 11 10 11 11 11 11 11 11 10 10 9 8 8 8 7 7 7 6 6 6 6 6 6 6 6 6 6 6 5 6 6 6 6 6 6 6 7 7 7 7 7 8 8 8 8 9 9 9 9 9 9 9 9
8 9 11 12 12 12 12 13 15 18 21 24 26 28 29 30 32 34 34 33 32 31 28 27 26 26 25 24 22 20 19 18 17 16 15 14 13 12 12 12 12 12 12 12 11 11 10 10 10 9 8 8 7 7 7 7 6 6 7 6 6 7 7 6 7 7 7 7 7 7 7 7 7 7 7 8 8 8 8 8 8 8 8 8 8
7 8 10 12 13 13 13 14 15 17 20 23 27 30 32 34 36 38 39 38 36 34 32 31 31 31 31 30 28 27 26 26 26 25 24 23 21 19 17 15 14 13 13 13 13 14 14 13 13 13 12 11 11 10 10 9 9 9 8 8 8 8 8 8 8 8 8 8 8 9 9 9 9 9 9 9 9 9 10 10 10 10 10 11 11
7 8 9 10 12 13 14 15 15 16 18 21 24 29 33 36 39 41 42 41 39 36 35 33 33 32 32 31 30 29 28 27 27 28 27 27 27 26 25 23 21 19 18 17 16 15 15 15 14 14 14 14 14 14 14 14 13 13 13 13 13 12 12 12 12 13 13 13 13 13 14 14 14 14 14 14 15 15 15 15 15 15 16 16 17
8 8 8 9 10 12 13 15 16 17 18 19 21 25 30 35 39 42 44 44 42 40 38 35 33 32 32 32 32 31 30 28 27 27 27 27 27 27 28 28 28 27 26 25 24 23 22 21 20 19 18 17 17 17 16 16 16 16 15 15 15 15 16 16 16 17 17 18 18 18 19 19 19 19 19 20 20 20 20 20 21 21 22 22 23
8 8 8 8 9 10 12 14 15 17 18 19 21 23 26 32 37 42 45 46 45 43 40 37 35 33 33 34 34 34 33 32 31 30 30 29 29 30 30 30 31 31 31 30 30 30 29 29 28 28 27 26 26 25 25 24 24 23 23 23 23 23 22 23 23 23 24 25 25 25 26 26 26 26 26 26 27 27 28 28 28 28 28 28 27
8 9 9 8 8 9 10 12 14 16 18 20 22 22 24 29 35 41 45 47 47 45 42 39 37 36 35 35 35 35 35 35 34 34 34 33 33 33 33 33 34 34 35 35 36 35 35 35 35 34 34 34 34 34 34 34 34 35 34 34 34 33 33 32 32 31 31 31 31 31 32 32 32 32 32 31 31 31 30 30 29 28 27 27 26
8 8 9 9 9 9 9 10 12 14 16 19 22 24 25 28 33 39 44 48 49 48 45 42 40 38 36 36 36 36 35 35 35 36 36 36 36 35 35 35 35 35 36 36 37 37 37 38 37 37 37 37 36 35 35 35 35 35 35 34 34 34 33 32 32 32 31 31 31 30 30 30 29 29 28 28 27 26 26 25 25 25 24 24 24
8 8 9 9 9 9 9 9 10 12 14 17 20 23 25 28 32 37 44 49 51 51 49 46 43 41 39 38 37 36 35 35 36 37 38 38 38 37 36 35 34 34 34 34 34 34 34 34 34 34 33 33 32 32 32 31 30 30 29 29 29 28 28 28 28 28 28 27 27 26 26 26 25 25 25 25 25 25 26 26 26 26 26 27 26
8 8 8 9 9 9 9 9 9 10 12 14 16 19 23 27 31 37 44 50 54 55 54 52 49 47 45 43 42 40 38 38 38 39 39 40 39 38 37 36 35 34 34 34 33 33 33 34 34 34 34 34 34 33 33 33 32 32 31 31 31 30 30 30 30 30 29 29 29 29 29 29 29 30 30 31 31 31 31 31 31 30 29 29 28
7 8 8 9 9 9 9 10 9 10 10 11 14 16 19 24 30 36 42 48 54 58 59 59 56 54 52 50 49 47 44 43 42 41 41 41 41 41 40 40 39 39 38 37 36 37 37 37 37 37 37 37 38 38 39 39 40 40 41 41 41 41 41 41 40 40 39 39 39 39 39 39 39 39 39 38 37 36 35 34 33 32 31 30 29
Wind_Speed
45 45 45 44 45 47 48 49 51 52 54 54 55 56 56 56 57 58 60 62 61 61 62 63 64 64 66 68 70 72 75 78 81 82 83 83 86 90 94 98 101 104 106 109 112 114 116 118 121 123 125 127 129 130 131 133 134 134 134 133 133 133 134 136 137 141 146 150 152 152 152 152 152 150 148 147 146 145 144 144 143 141 140 138 136
42 42 42 42 43 44 45 46 48 50 51 52 53 54 54 54 54 55 57 57 57 57 58 60 62 63 64 65 67 69 71 73 77 79 81 82 83 85 89 93 97 101 104 106 109 112 113 114 116 119 122 124 126 128 130 131 132 133 133 132 132 132 133 133 134 136 142 149 152 153 152 153 153 153 152 150 149 148 147 147 145 143 141 140 138
39 39 39 39 40 40 41 43 45 47 48 50 51 52 52 52 52 53 53 54 54 55 56 58 60 61 62 63 64 66 67 70 72 74 76 78 80 82 85 88 92 96 100 103 105 108 110 111 112 115 119 121 124 126 128 129 130 131 131 132 132 131 132 132 132 133 137 144 150 153 153 153 154 155 155 153 152 150 150 149 148 146 143 141 139
37 36 36 36 37 37 39 41 43 45 46 47 48 49 50 50 49 50 51 52 52 53 54 56 58 59 60 61 62 64 65 67 68 69 71 74 77 80 81 83 86 90 94 97 100 103 105 107 109 111 114 117 120 123 125 127 128 128 129 130 131 131 131 131 131 132 134 138 144 150 153 154 155 155 156 156 154 152 151 150 149 148 146 143 140
34 34 34 34 35 36 37 38 41 42 43 44 45 46 49 49 48 48 49 50 50 49 50 52 54 56 58 59 60 61 63 64 65 66 68 71 74 76 78 80 82 84 87 91 95 98 100 103 105 107 109 111 115 119 121 123 125 126 127 128 129 130 130 130 130 131 132 135 138 143 149 153 155 155 156 156 155 153 152 151 150 150 149 147 143
32 32 31 31 32 33 34 35 37 38 39 40 41 43 47 48 47 47 48 47 46 45 46 48 50 53 55 56 57 59 60 62 63 64 65 67 69 71 73 76 78 80 82 85 88 92 95 97 100 102 104 106 109 113 117 120 122 123 124 126 127 128 129 129 129 130 131 132 134 137 143 148 153 155 155 156 156 155 153 152 151 150 151 150 148
30 30 29 29 29 29 29 30 33 34 35 37 38 40 43 46 47 46 46 46 45 43 44 46 49 51 53 54 55 57 58 59 60 61 62 64 66 67 69 72 74 76 78 80 83 86 89 92 94 96 99 101 105 108 112 115 118 120 122 123 125 126 127 127 128 128 129 130 131 133 138 143 147 151 154 155 155 155 154 153 151 151 150 151 151
29 28 28 27 27 26 26 26 29 31 32 33 35 38 41 45 46 45 45 46 44 42 42 44 46 49 50 52 53 54 55 56 56 57 59 61 63 65 66 69 71 73 76 78 79 81 83 86 89 91 93 96 100 103 107 110 113 116 119 121 123 124 124 125 126 127 128 128 128 130 134 138 143 146 149 152 153 153 153 153 153 152 152 152 152
28 28 28 28 27 25 24 24 25 28 29 30 33 37 40 42 43 43 43 43 43 42 41 41 43 45 46 47 48 50 51 52 53 54 55 57 60 62 63 65 67 70 72 74 76 78 79 81 83 86 88 91 94 98 102 105 109 112 115 118 121 122 122 122 123 125 126 127 127 127 130 134 138 142 144 147 150 152 152 154 154 154 153 152 152
27 27 28 28 28 27 25 23 24 25 25 27 31 33 35 38 40 40 40 40 41 41 40 39 40 42 44 45 45 47 48 50 50 51 52 54 56 58 60 61 64 66 68 71 73 75 76 78 79 81 83 86 89 92 96 101 104 108 111 114 117 119 120 120 121 122 124 125 126 126 127 131 134 137 140 143 147 150 152 152 153 153 152 152 151
25 24 25 26 27 27 26 24 23 23 23 24 28 29 30 33 35 35 35 36 38 39 39 38 38 39 41 43 43 44 46 47 48 50 51 53 54 56 57 59 60 63 65 68 69 71 73 74 76 77 79 81 83 87 90 95 99 103 106 109 111 114 116 117 119 121 122 123 123 124 125 128 131 134 138 141 143 146 149 151 151 151 151 151 151
23 23 23 24 25 25 25 24 22 22 22 23 24 25 26 27 29 29 31 33 34 36 36 36 36 38 39 40 42 43 44 44 46 48 50 51 53 54 56 57 58 60 63 65 66 68 70 71 73 74 76 78 79 81 84 88 93 97 100 103 105 107 110 113 115 118 120 121 121 121 122 125 128 131 135 138 140 143 145 148 149 149 149 149 150
24 23 23 23 23 24 24 23 22 21 21 21 22 23 23 24 25 27 28 30 31 32 33 34 34 36 37 39 40 41 42 43 44 46 48 49 50 52 54 55 56 58 60 62 64 66 67 69 71 72 73 74 75 77 80 83 87 90 94 96 99 101 104 107 110 114 116 118 119 119 120 122 125 129 132 135 137 139 141 143 145 146 147 148 148
25 24 24 23 23 23 23 23 22 21 20 20 20 20 21 22 23 24 25 27 28 29 30 30 31 32 34 36 38 39 40 41 42 44 45 46 48 50 52 53 54 56 58 60 62 63 65 66 68 69 69 71 72 74 75 78 81 84 87 90 93 96 99 102 105 108 112 114 116 117 118 120 122 126 129 131 133 135 136 139 141 142 144 145 146
26 25 24 23 23 23 23 22 22 20 19 19 18 18 18 19 20 21 22 23 24 25 26 27 28 29 31 33 35 37 38 39 40 41 42 43 45 47 49 51 52 54 56 57 58 60 61 62 64 66 67 68 69 70 72 74 76 78 81 84 87 90 93 96 99 103 106 109 112 114 116 118 119 122 125 127 129 130 131 134 136 137 138 139 140
26 25 24 23 22 22 22 21 21 20 18 17 17 16 17 17 18 19 20 21 22 23 24 25 26 27 28 30 32 34 36 37 38 39 40 41 42 45 47 49 50 51 52 53 54 55 57 59 61 63 65 66 67 68 69 70 72 74 76 78 81 84 87 90 93 96 99 103 106 109 111 114 116 118 121 123 124 125 126 127 130 132 133 134 135
27 26 24 23 21 20 19 19 19 19 18 17 17 16 16 17 17 18 19 20 21 22 22 23 24 25 26 28 30 31 33 35 36 37 38 39 40 43 45 47 48 49 49 50 50 51 53 56 58 60 61 63 64 65 66 67 69 70 72 74 76 78 81 84 87 90 93 96 100 103 106 109 111 113 116 118 120 121 122 123 125 127 130 131 132
26 25 23 21 19 18 18 17 17 17 17 16 16 16 16 16 17 18 19 20 20 21 21 21 22 23 24 25 27 29 30 32 34 35 36 37 39 41 44 45 46 47 47 47 48 48 50 52 54 56 57 58 60 61 63 64 66 67 68 70 71 73 76 79 81 83 87 90 94 97 100 102 105 108 110 113 115 117 119 120 122 124 126 128 129
25 24 22 20 19 18 17 16 15 15 15 15 15 15 16 16 17 17 18 19 20 20 20 20 20 21 21 23 24 26 28 30 31 32 34 35 37 39 41 43 44 44 44 44 45 46 47 49 51 52 53 53 54 56 58 61 63 64 65 66 68 70 72 72 74 77 80 84 87 90 92 95 98 100 103 106 109 111 114 116 119 121 123 124 125
24 23 22 20 19 18 16 15 14 14 14 14 14 14 15 15 16 17 18 18 19 19 19 19 19 19 19 20 22 23 25 27 28 29 31 32 34 36 38 40 41 42 42 42 43 44 44 46 48 49 50 49 49 51 53 55 58 60 62 64 66 68 68 67 68 70 73 75 79 82 85 87 90 93 97 100 103 105 108 111 114 117 119 121 122
24 23 22 20 19 18 17 15 14 14 13 13 13 13 14 14 15 16 17 17 18 18 19 19 19 19 19 19 19 20 22 23 25 27 28 30 31 32 35 37 38 39 40 40 41 41 42 43 44 45 46 46 46 47 48 50 53 55 58 61 64 64 63 63 64 66 66 68 71 74 78 81 84 87 91 95 98 100 103 106 109 112 114 117 119
25 24 23 21 20 19 18 17 15 14 14 13 13 13 13 13 14 15 16 17 18 18 19 19 19 19 19 19 19 19 20 21 22 24 26 27 29 30 32 33 35 37 38 38 38 39 39 40 41 42 43 44 44 44 46 47 49 51 53 57 59 58 58 59 61 62 63 65 67 69 72 76 80 83 87 90 93 95 98 100 103 106 109 111 114
27 26 24 23 21 20 19 18 17 16 15 14 13 13 13 13 13 14 14 15 16 17 18 18 18 18 18 18 18 19 19 19 20 21 22 24 25 27 28 30 32 33 34 35 35 35 35 36 37 38 39 40 41 41 42 44 46 48 50 51 52 52 54 56 57 59 61 62 63 65 67 70 74 77 81 84 87 90 92 93 96 99 101 104 107
28 27 26 25 23 22 20 19 17 16 15 14 13 13 12 12 12 13 13 13 14 15 15 16 16 17 17 17 17 17 18 18 18 19 19 20 21 22 24 26 28 30 31 31 32 32 33 33 33 34 35 36 37 37 38 40 42 45 47 46 46 47 49 52 54 56 58 58 59 60 62 64 67 71 74 77 81 84 85 87 88 91 93 95 98
29 27 26 25 25 23 21 19 18 17 15 14 14 13 13 12 12 12 12 12 13 13 14 14 15 15 15 15 15 15 16 16 17 17 17 18 18 19 20 22 24 25 27 28 29 30 31 31 31 31 32 33 34 34 35 37 39 41 43 43 43 43 45 48 51 52 53 53 54 56 58 60 64 66 68 71 74 76 78 79 81 83 86 88 90
29 27 26 26 25 24 22 20 18 17 16 15 14 14 13 13 13 13 13 13 13 13 13 14 14 14 15 15 15 15 15 15 15 16 16 16 17 18 19 19 21 22 24 25 26 28 29 29 29 29 30 31 32 33 34 35 36 37 39 39 39 40 43 46 47 47 48 50 53 55 57 59 61 63 63 64 67 70 72 74 76 78 80 83 85
30 28 26 26 25 24 22 21 19 18 17 16 15 14 14 14 14 14 14 14 13 13 13 13 13 14 15 15 15 15 15 15 15 16 16 16 16 17 17 18 19 21 22 23 24 26 26 27 27 27 28 29 30 31 32 33 34 35 36 36 36 36 39 40 41 42 44 47 50 52 54 56 57 58 59 60 63 65 67 69 71 74 76 78 81
31 28 27 26 26 24 22 21 20 19 18 17 15 14 14 13 13 13 13 13 13 13 12 12 13 13 14 14 15 15 15 15 15 15 15 16 16 17 17 18 18 20 21 22 23 24 25 25 25 26 26 26 27 29 30 31 33 33 34 34 34 34 35 36 37 39 42 44 46 47 49 51 53 54 55 57 60 61 63 65 67 70 72 75 77
32 30 28 28 28 26 24 22 21 20 20 18 17 15 15 14 13 13 12 12 12 12 12 12 12 12 12 13 13 13 14 14 14 14 14 15 16 16 17 17 18 19 19 20 21 21 22 23 24 24 25 25 26 27 28 29 30 31 31 32 33 33 34 34 35 37 39 40 41 42 44 46 47 48 51 53 55 58 60 62 64 67 69 71 72
33 32 31 30 29 28 26 25 24 23 23 22 20 19 18 17 16 14 13 12 12 11 11 11 11 11 11 11 11 11 11 12 12 12 12 13 14 15 16 16 17 18 18 18 19 19 20 20 21 22 23 24 25 25 26 27 28 29 30 31 32 33 33 33 34 35 36 37 38 39 41 42 43 45 47 50 52 54 56 58 60 62 64 65 66
35 33 32 31 30 29 27 26 26 26 25 24 23 21 20 19 18 16 15 14 13 12 12 11 11 10 9 9 9 9 9 9 9 9 9 10 11 12 13 14 15 16 17 17 18 18 18 18 19 19 20 21 23 24 24 25 26 27 28 29 30 31 33 33 33 34 35 36 38 39 40 41 43 45 46 48 50 51 53 54 56 57 58 60 61
37 35 33 32 31 30 28 27 27 26 25 24 23 21 20 19 18 17 16 15 15 14 14 13 12 11 10 9 9 8 7 7 7 7 7 7 7 8 10 11 12 14 15 16 16 17 17 17 17 17 18 19 20 21 23 23 24 25 26 27 28 30 31 32 33 34 35 36 37 38 38 40 41 42 44 45 47 48 49 50 51 53 54 55 56
38 36 35 33 31 30 29 27 26 26 25 24 23 22 21 20 19 19 18 17 17 16 16 15 14 13 12 11 10 9 8 8 7 7 6 6 6 6 6 8 9 11 12 14 15 15 16 16 16 16 17 17 18 19 20 21 22 22 23 25 26 28 30 31 32 34 35 36 37 37 38 39 40 41 42 44 45 46 47 48 49 50 52 52 53
38 36 35 33 31 30 29 28 27 27 26 26 25 24 23 22 22 21 20 19 18 17 17 17 16 15 15 14 13 12 11 10 9 8 7 7 6 6 6 6 7 8 10 11 12 13 14 14 15 15 15 16 16 17 18 18 19 20 21 22 23 25 27 29 30 32 33 35 36 36 37 38 39 40 41 42 43 45 46 47 48 49 49 50 51
41 39 37 36 33 32 30 30 29 29 29 28 27 27 26 25 24 23 22 21 20 19 18 18 18 17 17 16 15 15 13 12 11 10 8 7 7 6 6 6 6 7 8 9 10 12 12 13 13 14 14 15 15 16 16 17 17 18 19 20 21 22 23 25 27 29 31 32 34 35 36 37 38 39 40 41 42 44 45 46 46 47 48 49 50
44 42 41 39 37 35 34 33 32 32 31 30 29 28 28 27 26 25 24 22 21 20 20 19 19 18 18 17 16 15 15 13 12 11 10 9 8 7 6 6 6 6 7 8 9 10 11 12 12 13 14 14 15 15 15 16 16 17 18 18 19 20 21 23 24 26 28 29 31 32 34 35 36 37 38 39 41 42 44 45 46 47 48 49 50
46 44 42 40 39 37 36 35 34 34 33 32 30 29 28 28 27 26 25 24 23 21 20 19 19 18 18 17 16 15 15 14 12 11 10 10 9 8 7 7 6 6 6 7 8 9 10 10 11 12 13 14 14 15 16 16 16 17 17 18 18 19 20 21 22 23 25 27 28 30 31 32 33 34 35 37 38 39 41 43 44 45 47 48 49
46 44 42 40 39 37 36 35 34 33 32 31 31 30 29 28 27 26 25 24 23 22 20 19 18 18 17 17 16 15 15 14 13 12 11 11 10 9 8 7 7 6 6 6 6 7 8 9 10 11 12 13 14 14 15 16 16 17 17 17 17 18 18 19 20 21 23 24 25 27 29 30 31 33 34 35 36 37 38 39 40 42 43 44 45
46 44 42 40 39 37 36 34 33 32 31 30 30 29 28 27 26 26 25 24 23 21 20 19 19 18 17 16 16 15 14 14 13 13 12 12 11 10 9 8 7 7 6 5 5 6 6 8 9 10 10 11 12 13 14 15 15 16 16 16 17 17 17 18 19 19 20 22 23 24 25 27 28 30 31 33 34 35 36 38 39 40 41 42 43
46 44 42 41 39 37 35 34 33 32 30 29 29 28 27 27 26 26 25 24 23 21 20 19 18 18 17 16 15 14 13 13 12 12 12 12 12 11 10 9 8 7 6 6 5 5 5 6 7 8 9 10 11 12 13 13 14 15 15 16 16 17 17 18 18 19 19 20 21 22 23 24 26 27 28 30 31 33 34 35 37 38 39 40 42
46 44 43 41 39 37 36 34 32 31 30 29 29 28 27 27 26 26 25 24 23 22 20 19 18 18 17 17 16 15 13 13 12 11 11 10 10 10 9 8 8 7 6 6 5 5 5 5 5 6 6 7 8 10 11 11 12 13 14 14 15 15 16 16 17 17 18 18 19 20 21 22 23 24 26 27 28 30 31 32 34 35 36 38 39
46 44 43 41 39 38 36 34 33 31 30 29 28 28 27 26 26 25 25 24 23 22 21 20 19 18 17 17 16 15 14 13 12 11 10 10 9 8 8 7 7 6 6 5 5 5 4 4 4 4 5 5 6 7 8 9 10 11 12 12 13 13 14 14 15 15 16 16 17 17 18 19 20 21 23 24 25 26 27 29 30 31 32 33 34
47 44 42 41 39 38 36 34 33 31 30 29 28 27 27 26 25 24 24 24 23 22 21 20 19 18 17 17 16 15 14 14 13 12 10 9 8 7 7 6 6 5 5 4 4 4 4 4 4 4 5 5 5 6 7 7 8 9 10 10 11 12 12 13 13 13 14 14 15 16 16 17 18 19 20 21 22 23 25 26 27 28 29 30 32
48 45 43 41 39 38 36 35 33 31 30 28 27 26 26 25 25 24 23 23 22 22 21 20 19 18 17 17 16 15 14 13 12 12 11 10 9 8 7 6 5 5 4 4 4 4 4 5 5 5 6 6 6 6 7 7 8 9 9 10 11 11 12 12 13 13 14 14 15 16 16 17 18 19 20 21 22 24 25 26 27 28 30 31 32
49 46 43 41 39 37 36 34 33 31 29 28 26 25 24 24 24 23 22 22 21 21 20 20 19 18 17 17 16 15 15 14 13 12 11 11 10 10 9 8 7 7 6 5 5 5 5 6 6 6 7 7 8 8 9 9 10 10 11 12 12 13 13 14 14 15 16 16 17 18 19 20 21 21 22 23 24 25 27 28 29 30 31 33 34
49 47 45 42 39 37 35 34 32 31 29 28 26 25 24 23 23 23 22 21 21 21 20 19 19 18 17 17 16 15 14 14 13 12 12 12 11 11 11 10 10 9 9 8 8 7 7 7 7 7 8 8 8 9 9 9 10 10 11 12 12 13 14 14 15 16 17 18 18 19 20 21 22 23 24 25 26 27 28 29 30 31 33 34 35
50 48 46 43 41 38 36 34 32 31 29 28 27 25 24 23 22 22 22 21 20 20 20 19 19 18 17 16 16 15 14 13 13 12 12 12 11 11 10 10 10 10 9 9 9 9 8 8 8 8 9 9 9 10 10 11 11 11 12 13 13 14 14 15 16 17 18 18 19 20 21 22 23 24 25 26 27 27 29 30 30 31 32 33 34
50 48 46 44 42 40 37 35 33 31 30 28 27 26 25 23 22 21 21 21 20 20 19 19 18 18 17 16 16 15 14 13 12 12 12 11 11 10 10 9 8 8 8 8 8 8 8 8 7 8 8 8 9 10 10 11 11 12 12 13 13 14 15 15 16 16 17 18 19 20 21 22 23 23 24 25 26 26 27 28 28 29 30 31 32
51 49 46 44 42 41 39 36 34 32 30 29 28 27 26 24 22 21 21 20 20 20 20 19 18 18 17 17 16 16 15 14 13 13 12 12 11 10 10 9 8 7 7 6 6 6 6 6 6 7 7 7 7 8 8 9 9 10 10 11 12 12 12 13 14 14 15 16 17 18 19 19 20 21 22 22 23 24 24 25 26 28 29 30 31
53 50 48 45 43 41 40 38 35 33 31 29 28 27 26 25 23 22 21 20 20 20 19 19 19 18 18 17 17 16 16 15 14 13 13 12 11 11 10 10 9 9 8 7 7 6 6 6 6 6 6 6 7 7 7 7 7 8 8 9 9 10 10 11 12 12 13 14 15 15 16 17 18 18 19 20 21 22 24 25 26 27 29 30 31
54 51 49 47 44 42 40 39 37 35 32 30 28 27 26 25 24 23 22 21 21 20 19 19 18 18 18 17 17 17 16 16 15 14 13 13 12 12 11 11 10 10 10 9 9 8 8 7 7 7 7 7 7 7 7 7 8 8 8 8 8 9 9 10 11 11 12 13 13 14 15 16 17 18 19 20 21 22 24 25 26 27 28 30 31
Wind_Direction
279 277 274 272 269 267 266 266 264 264 263 262 260 259 258 257 256 255 255 255 254 253 252 251 250 248 247 245 244 242 241 241 242 242 241 239 237 237 237 238 238 238 237 237 237 237 237 236 236 237 237 237 238 239 240 240 241 241 241 240 239 238 237 237 236 237 238 240 242 242 243 245 246 247 247 247 247 247 248 248 248 247 247 247 247
279 277 274 272 269 267 265 264 263 262 262 262 261 260 259 258 257 255 255 254 254 252 251 250 249 247 246 245 244 243 241 241 240 241 241 241 239 237 236 236 237 237 237 237 236 237 237 236 236 236 236 237 237 238 239 239 240 240 241 241 240 239 238 237 236 235 236 238 240 242 243 243 245 246 247 247 247 248 248 249 249 248 248 247 247
278 276 274 271 269 267 264 263 261 260 260 261 262 261 260 259 258 257 256 255 253 251 249 248 248 247 246 244 244 243 242 241 240 240 241 241 241 240 238 237 236 237 238 237 237 237 237 237 236 236 236 236 237 237 238 239 239 239 240 241 240 240 239 238 237 236 235 236 238 240 242 243 243 244 246 247 247 247 248 249 250 250 249 249 248
281 279 276 273 269 266 262 261 260 260 260 261 262 262 262 261 259 258 257 255 253 250 248 248 248 247 246 245 244 243 242 241 241 240 240 240 241 241 241 239 238 237 238 238 238 238 238 238 238 237 236 236 236 237 238 238 239 239 239 240 240 240 240 239 238 237 236 235 236 237 240 242 243 243 245 246 247 247 247 248 249 250 251 251 250
284 281 278 274 270 266 263 260 260 261 261 260 261 262 262 262 260 259 257 256 254 251 249 248 248 247 246 245 244 243 242 242 241 240 239 239 239 240 241 241 240 239 238 238 238 239 239 238 238 238 238 237 236 237 238 239 239 239 239 239 240 240 240 240 239 238 237 236 235 236 238 240 242 243 244 245 246 247 248 248 249 250 251 252 252
287 284 279 274 270 267 264 261 261 261 261 260 259 259 261 262 262 260 259 258 255 253 249 246 245 245 245 244 244 243 243 242 241 240 239 239 240 240 241 241 242 241 240 239 238 239 239 239 239 239 239 238 237 237 238 238 239 240 240 240 240 240 240 240 240 239 238 237 236 236 236 238 240 242 243 244 245 247 248 248 249 249 250 251 252
289 286 281 276 271 267 263 261 261 260 259 258 258 257 258 260 261 260 260 260 257 253 250 246 244 243 243 242 242 242 242 241 241 240 239 239 239 240 240 240 241 242 241 240 239 239 238 239 239 239 238 238 238 237 237 238 238 239 240 240 240 240 240 240 240 240 239 239 238 237 237 237 239 240 242 243 244 245 247 248 249 249 249 250 251
293 289 286 282 277 271 265 262 261 261 259 258 256 255 254 257 259 259 259 259 258 255 252 249 248 246 245 244 243 242 242 241 241 240 240 239 239 239 240 240 240 241 241 241 241 240 239 239 238 238 238 237 237 237 237 237 237 238 239 239 240 241 241 240 240 240 240 240 239 238 237 238 238 239 241 242 244 244 246 247 248 249 249 250 250
298 295 292 289 285 280 274 268 264 263 261 259 256 254 254 257 259 259 259 260 260 258 254 251 250 249 248 247 245 244 244 243 242 241 240 240 240 240 240 240 241 241 241 242 242 242 241 240 239 238 238 237 236 236 236 237 237 237 237 238 239 240 241 241 240 240 240 240 240 239 238 238 238 239 240 241 242 244 244 245 246 247 248 249 250
299 297 294 291 289 286 282 276 270 267 264 261 259 258 258 258 258 258 258 258 258 257 255 252 250 249 249 247 245 244 244 243 242 241 240 240 240 240 241 241 241 242 242 242 242 242 242 242 241 240 239 238 237 236 236 236 236 236 236 237 237 238 240 240 240 240 240 240 240 239 238 238 238 239 240 240 241 242 243 244 245 246 248 249 249
300 296 292 290 289 288 286 282 276 271 267 263 262 262 261 260 259 258 256 255 254 254 252 250 248 247 248 248 247 245 244 243 242 241 240 240 240 240 240 240 241 242 242 243 243 242 242 242 242 241 240 239 238 237 236 236 237 237 237 237 237 237 238 239 240 240 240 240 239 239 238 238 238 239 239 240 240 241 242 243 245 246 247 248 249
306 301 297 293 291 290 288 285 281 275 270 265 264 264 263 263 262 259 255 252 251 251 250 248 246 245 245 246 247 247 245 244 243 242 241 240 240 240 240 240 240 241 242 242 243 243 243 243 242 242 241 240 239 238 237 237 237 237 238 238 238 237 237 237 238 239 240 240 240 239 238 238 238 238 239 239 240 240 241 242 243 245 246 247 248
315 311 307 303 299 295 292 289 286 281 275 270 267 266 264 261 258 255 253 252 251 251 250 249 247 245 244 245 247 247 247 246 245 244 242 242 241 241 241 240 240 241 242 242 242 242 242 243 243 242 242 242 241 239 238 237 237 237 238 238 238 238 238 237 237 238 239 240 240 240 239 238 237 238 238 239 239 240 241 241 242 244 245 246 247
323 319 315 310 306 302 298 295 291 287 283 278 275 273 270 266 262 260 258 256 255 254 253 251 250 248 247 247 247 248 248 248 247 246 245 243 242 242 242 242 241 241 242 242 242 242 243 243 243 243 243 242 242 241 239 238 238 238 238 238 238 238 238 238 237 237 238 238 239 240 239 238 237 237 238 239 239 239 240 241 242 243 244 245 246
327 324 320 316 312 307 303 299 296 292 288 284 281 279 277 274 271 268 265 262 260 258 256 255 253 251 249 249 248 249 249 249 249 248 247 246 244 243 243 243 243 243 243 243 244 244 243 243 243 243 242 242 241 241 240 239 239 238 238 238 238 238 238 238 238 237 238 238 238 239 239 239 238 238 238 239 239 240 240 241 242 243 244 244 245
332 329 326 322 317 312 308 303 299 295 290 285 280 278 276 275 272 270 268 266 264 262 259 257 254 252 250 249 249 248 248 248 248 248 248 247 246 246 246 245 244 245 245 245 246 246 245 245 243 243 242 241 241 241 240 240 239 239 239 239 239 239 239 238 238 238 238 238 238 239 239 239 239 239 239 239 240 240 241 241 242 243 244 245 246
336 333 329 325 322 318 313 307 302 298 293 287 283 280 278 276 274 272 270 269 267 264 262 259 256 253 251 250 249 249 248 249 249 248 248 247 246 246 246 246 246 246 246 247 247 247 247 246 245 244 243 242 242 241 241 241 240 240 239 239 239 239 238 238 238 238 238 238 239 239 239 239 239 239 239 239 240 241 241 241 242 243 244 245 246
337 333 330 327 325 323 319 313 307 302 298 294 291 287 284 281 279 277 275 273 272 270 267 264 260 256 253 251 250 250 249 249 249 249 248 246 245 245 245 246 246 246 246 247 247 247 246 247 247 246 245 244 243 242 242 241 241 241 241 240 240 240 239 239 238 238 238 238 238 239 239 239 239 239 239 239 240 240 240 241 241 242 243 244 245
338 336 334 333 332 330 326 321 315 310 305 301 297 295 292 289 287 285 282 280 278 277 274 270 266 261 256 253 252 251 250 249 249 250 250 249 247 246 246 247 248 248 247 246 246 246 245 246 246 247 246 245 244 243 242 242 241 241 241 241 241 240 240 240 239 239 239 239 239 239 239 240 240 240 240 240 240 240 240 240 241 242 243 244 245
344 342 341 340 338 335 331 327 322 316 311 306 302 299 296 294 292 290 288 286 283 281 278 274 270 265 260 256 253 252 250 249 249 249 249 249 248 248 248 249 249 250 249 247 246 245 245 245 246 247 247 247 246 245 244 243 242 241 241 241 241 241 241 240 240 240 240 240 240 240 240 240 240 240 240 241 241 240 240 240 240 241 242 243 244
349 349 348 347 344 341 337 332 327 322 317 313 308 305 301 298 295 293 290 287 284 281 279 276 273 270 267 263 258 255 253 251 250 249 248 247 247 247 247 248 249 249 249 248 246 245 244 244 245 246 246 246 245 245 244 244 243 242 240 240 241 241 242 242 241 240 240 239 239 240 240 240 240 239 239 240 240 240 240 240 240 240 240 241 243
355 355 355 354 351 347 343 339 335 331 326 322 318 315 311 306 301 295 291 288 286 284 282 281 279 277 274 270 267 262 258 254 252 250 248 247 246 245 246 247 248 249 250 249 248 246 245 244 244 245 246 245 245 244 243 243 243 242 241 240 240 241 241 241 241 241 241 240 239 238 238 238 238 238 238 238 239 239 239 239 239 239 240 240 241
359 359 359 358 356 353 350 346 343 339 336 332 328 324 319 313 307 301 296 292 290 288 287 285 283 280 277 274 271 267 263 260 256 253 250 248 246 245 244 246 247 249 250 251 251 250 248 246 245 245 245 245 244 243 242 243 243 243 242 241 240 239 239 239 240 240 240 240 240 239 238 238 238 238 238 238 239 239 239 239 239 239 240 240 240
360 359 359 359 358 357 354 351 348 345 343 339 335 331 325 319 314 309 305 300 296 293 290 287 285 282 279 276 273 270 267 265 262 259 257 254 251 247 245 244 245 247 249 250 251 251 250 249 247 246 246 246 245 243 242 241 242 243 243 242 240 238 238 238 238 238 239 240 240 241 241 240 240 239 239 239 239 240 240 240 240 240 240 240 241
1 1 1 1 360 358 355 353 350 349 346 344 340 336 332 327 322 318 314 311 307 303 299 296 292 289 286 282 278 274 271 270 268 266 263 260 258 254 251 247 246 246 247 248 249 249 249 248 247 246 246 246 246 245 244 242 241 242 243 242 240 237 237 237 236 236 237 238 239 240 240 241 240 240 239 239 239 240 240 241 241 240 240 240 240
3 4 3 2 359 357 357 356 355 354 351 348 345 341 337 334 331 328 325 322 318 314 310 306 303 300 296 293 289 286 281 278 275 271 268 264 261 258 255 252 250 248 247 247 247 247 247 246 245 243 243 243 244 244 243 243 242 242 242 242 240 237 236 236 236 235 234 234 234 235 235 236 237 238 239 239 240 240 240 240 240 240 240 240 239
5 6 4 2 360 359 359 358 358 358 356 353 350 346 342 339 337 334 331 328 325 320 315 311 308 304 301 298 295 291 287 283 280 277 275 271 267 263 258 255 252 249 247 247 246 247 247 245 243 241 240 240 241 241 242 242 242 243 242 242 241 239 237 238 238 236 235 234 234 233 234 234 236 236 237 238 239 239 239 240 240 239 239 239 239
7 7 7 6 5 4 4 4 3 3 1 358 355 351 347 344 342 340 337 333 329 324 321 317 313 308 304 300 296 292 287 283 279 277 275 273 270 267 263 258 254 251 248 246 245 245 246 246 244 242 240 238 238 239 240 241 242 243 244 243 242 240 238 237 235 234 234 234 234 234 234 234 235 235 235 236 237 238 238 239 239 239 239 239 239
9 10 11 10 9 8 8 9 9 8 7 5 2 359 355 352 349 348 345 340 335 331 328 323 317 311 306 301 298 294 289 285 281 276 272 269 268 267 265 263 260 258 254 251 248 246 245 245 245 243 241 239 237 236 237 238 239 241 242 243 244 243 241 239 236 234 234 233 233 234 234 234 234 234 234 235 236 236 236 237 237 238 238 239 239
11 13 13 13 11 10 10 12 12 12 11 10 8 6 3 359 357 356 352 348 344 338 332 325 319 314 309 304 300 296 293 288 284 277 271 266 263 263 264 264 265 264 262 259 256 253 250 248 246 244 242 239 237 236 235 235 236 237 238 239 241 242 243 242 239 237 235 234 232 231 231 232 232 232 232 232 233 234 234 235 236 237 238 239 240
13 14 15 14 13 12 12 13 13 13 12 11 9 8 6 4 2 0 358 355 352 349 342 336 333 331 327 321 314 308 302 297 291 285 278 269 263 259 258 258 260 261 261 260 258 256 254 252 249 247 244 240 237 234 232 232 232 233 234 235 237 239 240 241 240 238 237 235 232 230 229 229 229 230 230 231 231 232 233 234 235 236 237 238 239
13 15 16 16 15 14 14 14 14 13 13 12 11 10 9 8 7 6 6 5 4 2 358 354 351 348 345 340 335 331 327 322 316 309 301 290 277 266 259 256 256 257 258 258 257 255 254 252 250 248 246 243 239 235 232 229 228 228 229 230 231 234 236 238 238 238 238 237 235 233 231 230 229 230 231 232 232 233 233 234 235 236 236 238 239
14 16 17 17 17 17 17 16 15 14 14 13 13 12 12 13 13 13 14 14 12 10 8 6 3 360 358 356 355 353 351 348 344 338 331 323 313 296 279 267 261 259 259 258 257 254 252 251 249 247 245 242 240 237 234 231 229 228 228 228 229 230 232 234 236 236 237 237 237 236 234 232 231 231 231 231 232 232 233 233 234 234 235 236 237
15 17 18 19 20 21 21 19 18 17 17 16 15 14 14 14 15 15 16 16 16 15 14 14 12 10 9 8 6 4 1 357 354 350 345 340 335 326 312 293 277 268 263 260 258 255 252 250 248 246 244 242 240 238 235 233 231 230 229 229 230 231 232 233 234 235 236 236 237 236 235 234 233 232 232 232 233 233 233 233 234 234 235 236 237
15 17 18 19 21 23 24 23 22 21 21 20 17 15 15 14 14 15 15 16 16 16 16 16 15 15 14 13 11 8 5 1 357 353 349 347 344 338 330 317 301 286 274 266 262 258 254 251 248 246 245 244 243 242 239 237 235 234 232 231 231 231 232 233 234 234 235 236 236 236 236 235 234 233 232 232 233 233 233 234 234 234 235 236 237
14 15 16 17 19 21 22 23 23 23 22 21 20 18 16 15 14 14 13 14 14 15 15 15 15 15 15 14 12 11 8 4 2 359 356 354 350 345 340 332 320 306 293 282 273 266 260 256 252 248 245 244 244 244 243 242 240 239 238 236 234 233 233 232 233 234 234 235 235 236 236 236 236 235 234 234 233 233 234 234 234 235 235 236 237
13 14 14 15 16 18 19 21 22 22 22 21 20 19 18 16 14 13 12 12 12 12 13 14 14 14 13 13 12 12 10 8 7 7 6 3 359 354 350 343 333 320 308 297 286 277 269 263 258 254 249 246 245 244 244 243 242 241 239 238 237 235 234 233 232 232 232 233 233 233 234 234 235 236 236 235 235 235 235 236 236 237 238 239 240
12 13 13 13 14 16 17 19 20 21 21 21 20 19 17 16 15 14 12 12 10 9 10 12 13 13 13 12 11 11 11 11 11 11 12 10 6 3 360 354 344 334 321 308 296 285 276 269 264 260 256 252 249 247 246 246 245 244 243 241 239 237 235 234 233 232 232 232 232 232 232 232 233 234 234 235 235 236 237 237 238 239 240 242 243
11 11 11 11 12 14 15 17 18 19 20 20 19 18 16 16 15 14 13 12 10 8 8 9 12 13 13 13 12 11 11 12 12 12 13 12 9 6 4 358 352 343 333 320 307 292 281 274 268 263 260 257 254 252 250 248 247 246 245 245 244 242 239 237 236 234 233 233 232 232 233 233 233 233 234 234 235 236 237 238 239 240 241 242 243
9 10 10 9 10 11 12 14 16 16 17 17 17 16 15 15 15 14 13 12 10 8 7 8 11 12 12 12 13 12 13 13 12 12 13 12 9 7 4 0 357 352 344 335 324 310 297 285 275 268 263 260 258 256 255 254 252 251 249 248 246 245 243 242 240 238 237 236 235 234 234 234 234 234 234 235 236 236 237 238 239 240 241 243 244
8 8 8 8 8 8 9 10 12 13 14 14 14 14 14 14 13 13 12 10 9 8 7 8 10 11 11 10 11 12 13 14 14 14 13 11 7 4 1 358 357 356 353 347 340 332 321 306 292 280 271 264 261 258 256 256 255 254 254 252 251 249 248 246 245 243 242 241 240 239 238 237 237 237 237 237 238 238 239 240 241 242 243 244 245
6 6 6 5 5 6 6 6 7 9 10 10 10 10 11 12 12 11 9 8 7 6 6 7 10 10 10 9 9 9 10 12 14 14 14 11 6 1 356 353 351 351 351 349 345 341 334 324 310 298 284 273 264 259 256 253 252 251 250 250 250 249 249 248 247 246 245 244 243 242 242 241 241 241 241 241 242 242 243 244 244 245 246 247 249
4 4 4 3 3 3 3 3 4 4 5 6 7 7 7 7 8 8 7 5 4 3 3 4 7 8 8 7 7 7 7 8 9 9 9 8 5 1 356 350 343 340 338 336 331 326 319 311 303 296 286 278 270 264 260 257 254 252 249 248 247 245 245 244 244 245 246 246 246 246 246 246 246 246 246 246 246 247 247 248 249 250 251 252 253
2 2 2 2 1 0 1 1 1 1 1 2 3 3 3 3 3 4 5 3 1 360 0 1 2 3 4 3 3 3 3 2 2 2 1 360 359 357 354 349 342 332 324 316 308 301 293 286 279 274 269 265 261 257 254 251 249 248 247 247 246 245 245 244 243 243 243 243 244 244 245 245 245 245 246 246 246 247 247 248 249 250 251 252 252
2 1 0 360 359 358 358 358 358 358 358 358 359 360 360 359 358 359 1 1 358 357 358 358 358 359 360 360 359 359 358 357 357 357 355 354 352 350 348 344 340 334 327 318 309 299 291 284 279 272 266 261 256 252 250 247 245 244 242 242 242 242 242 243 242 243 243 243 243 243 243 243 244 244 245 245 245 246 247 248 248 250 251 251 252
1 360 359 358 357 356 355 355 355 355 354 354 354 355 356 356 355 355 356 357 355 354 355 356 356 355 356 356 356 355 355 355 355 355 354 353 351 348 344 339 335 331 327 321 315 309 302 296 290 285 280 276 272 268 264 261 259 256 254 253 250 249 249 248 247 247 247 246 247 247 247 247 248 248 248 249 250 250 251 251 252 252 253 253 254
360 359 358 357 356 355 354 353 352 352 351 350 350 350 351 353 353 351 351 352 352 351 351 352 352 352 352 353 352 351 351 351 353 354 354 353 351 348 344 339 335 330 325 319 314 309 303 297 292 287 283 279 276 274 271 269 267 264 262 260 258 256 254 253 252 251 251 251 251 251 251 251 251 251 251 252 252 252 252 253 254 254 255 256 257
358 358 357 356 355 353 352 351 350 349 348 346 346 346 346 348 349 348 347 347 347 347 346 346 347 348 348 349 348 347 345 346 350 352 353 352 349 346 343 340 335 330 323 317 312 306 299 293 287 280 275 268 265 262 259 258 257 255 254 253 253 252 251 251 250 250 250 250 251 251 251 251 252 252 252 252 253 254 255 256 257 258 260 261 262
356 356 356 355 354 352 351 350 349 347 345 343 342 342 342 342 343 343 343 343 343 342 341 341 342 343 343 344 345 344 342 343 346 348 349 348 345 342 339 336 333 329 324 317 310 303 297 293 289 282 278 272 267 264 261 258 255 255 253 253 253 253 253 254 254 254 254 253 253 253 254 254 255 256 258 260 261 262 264 265 266 266 267 268 268
355 354 354 354 353 352 350 349 348 346 344 341 339 339 338 338 338 337 336 336 336 336 336 336 336 338 339 340 341 341 341 341 342 343 344 343 341 339 337 334 332 331 327 323 318 314 311 308 305 300 297 293 289 286 284 281 278 276 273 271 271 270 269 269 268 268 267 267 267 268 268 269 270 271 272 272 272 272 272 272 272 272 272 272 273
355 353 352 352 352 351 349 348 346 345 343 340 338 336 335 334 332 331 329 328 328 328 330 330 331 332 333 334 335 336 336 337 337 338 339 339 339 338 337 335 334 333 331 330 328 326 323 320 317 314 312 310 309 308 307 306 305 304 302 298 296 293 290 287 285 284 282 281 281 280 280 279 278 277 276 275 274 274 274 274 275 275 276 276 277